SNJ118 RJFK-RJGG

Flight info

Callsign SNJ118
Flight time 1h 3m
Altitude 33000
Route MIDAI M750 IMPAL Y755 CARDS
Aircraft B738/M-SDE2E3FGHIRWXY/LB1

Departure

Time 2026-05-05 11:28
Airport Kagoshima Airport (RJFK)

Arrival

Time 2026-05-05 12:31
Airport Chubu Centrair International Airport (RJGG)
Time Latitude Longitude Altitude Speed Heading
2026-05-05 10:52 31.80264 130.71573 905 ft 0 kts 240°
2026-05-05 11:21 31.80270 130.71586 877 ft 2 kts 240°
2026-05-05 11:21 31.80278 130.71603 877 ft 2 kts 241°
2026-05-05 11:21 31.80286 130.71620 878 ft 2 kts 242°
2026-05-05 11:22 31.80294 130.71637 904 ft 2 kts 243°
2026-05-05 11:22 31.80301 130.71655 906 ft 2 kts 244°
2026-05-05 11:22 31.80308 130.71672 904 ft 2 kts 247°
2026-05-05 11:22 31.80314 130.71690 904 ft 2 kts 251°
2026-05-05 11:23 31.80318 130.71709 905 ft 2 kts 263°
2026-05-05 11:23 31.80317 130.71728 907 ft 2 kts 312°
2026-05-05 11:23 31.80312 130.71733 902 ft 0 kts 327°
2026-05-05 11:25 31.80319 130.71727 905 ft 4 kts 328°
2026-05-05 11:25 31.80365 130.71695 904 ft 11 kts 331°
2026-05-05 11:25 31.80449 130.71639 905 ft 17 kts 330°
2026-05-05 11:25 31.80565 130.71558 908 ft 22 kts 330°
2026-05-05 11:26 31.80714 130.71459 910 ft 26 kts 330°
2026-05-05 11:26 31.80868 130.71353 913 ft 25 kts 329°
2026-05-05 11:26 31.81014 130.71255 916 ft 23 kts 330°
2026-05-05 11:26 31.81153 130.71163 921 ft 23 kts 329°
2026-05-05 11:27 31.81287 130.71071 923 ft 22 kts 329°
2026-05-05 11:27 31.81420 130.70998 926 ft 21 kts 358°
2026-05-05 11:27 31.81484 130.71083 926 ft 12 kts 83°
2026-05-05 11:27 31.81461 130.71171 926 ft 12 kts 125°
2026-05-05 11:28 31.81383 130.71234 922 ft 30 kts 150°
2026-05-05 11:28 31.80923 130.71547 913 ft 120 kts 150°
2026-05-05 11:28 31.79978 130.72203 960 ft 189 kts 150°
2026-05-05 11:28 31.78740 130.72968 1621 ft 208 kts 152°
2026-05-05 11:29 31.77309 130.73622 2295 ft 235 kts 160°
2026-05-05 11:29 31.75685 130.74190 2945 ft 248 kts 162°
2026-05-05 11:29 31.73999 130.74769 3793 ft 254 kts 162°
2026-05-05 11:29 31.72300 130.75360 4742 ft 256 kts 163°
2026-05-05 11:30 31.70586 130.75967 5667 ft 257 kts 163°
2026-05-05 11:30 31.68878 130.76579 6652 ft 256 kts 164°
2026-05-05 11:30 31.67182 130.77189 7442 ft 261 kts 164°
2026-05-05 11:30 31.65417 130.77824 8211 ft 267 kts 164°
2026-05-05 11:31 31.63692 130.78691 8995 ft 276 kts 145°
2026-05-05 11:31 31.62429 130.80412 9777 ft 285 kts 119°
2026-05-05 11:31 31.61872 130.82680 10440 ft 299 kts 98°
2026-05-05 11:31 31.61767 130.85222 10657 ft 324 kts 93°
2026-05-05 11:32 31.61754 130.87912 11224 ft 334 kts 92°
2026-05-05 11:32 31.61734 130.90651 11976 ft 337 kts 93°
2026-05-05 11:32 31.61688 130.93403 12773 ft 339 kts 93°
2026-05-05 11:32 31.61627 130.96179 13545 ft 342 kts 93°
2026-05-05 11:33 31.61561 130.98955 14251 ft 346 kts 94°
2026-05-05 11:33 31.61491 131.01811 14787 ft 355 kts 94°
2026-05-05 11:33 31.61419 131.04742 15340 ft 363 kts 93°
2026-05-05 11:33 31.61345 131.07731 15901 ft 370 kts 94°
2026-05-05 11:34 31.61270 131.10785 16446 ft 377 kts 94°
2026-05-05 11:34 31.61193 131.13889 16985 ft 384 kts 94°
2026-05-05 11:34 31.61113 131.17069 17180 ft 393 kts 94°
2026-05-05 11:34 31.61035 131.20242 17196 ft 393 kts 94°
2026-05-05 11:35 31.60953 131.23458 17179 ft 393 kts 94°
2026-05-05 11:35 31.60872 131.26657 17180 ft 392 kts 94°
2026-05-05 11:35 31.60790 131.29850 17204 ft 390 kts 94°
2026-05-05 11:35 31.60707 131.33039 17197 ft 391 kts 94°
2026-05-05 11:36 31.60759 131.36227 17155 ft 394 kts 81°
2026-05-05 11:36 31.61643 131.39258 17204 ft 394 kts 62°
2026-05-05 11:36 31.63019 131.42041 17201 ft 394 kts 58°
2026-05-05 11:36 31.64453 131.44786 17173 ft 395 kts 58°
2026-05-05 11:37 31.65901 131.47523 17166 ft 395 kts 58°
2026-05-05 11:37 31.67342 131.50267 17172 ft 394 kts 58°
2026-05-05 11:37 31.68755 131.52983 17171 ft 394 kts 58°
2026-05-05 11:37 31.70177 131.55740 17171 ft 394 kts 58°
2026-05-05 11:38 31.71595 131.58506 17158 ft 396 kts 58°
2026-05-05 11:38 31.73020 131.61295 17184 ft 396 kts 58°
2026-05-05 11:38 31.74430 131.64060 17173 ft 392 kts 59°
2026-05-05 11:38 31.75839 131.66828 17353 ft 398 kts 58°
2026-05-05 11:39 31.77269 131.69641 17909 ft 403 kts 58°
2026-05-05 11:39 31.78714 131.72484 18534 ft 407 kts 58°
2026-05-05 11:39 31.80176 131.75364 19013 ft 413 kts 58°
2026-05-05 11:39 31.81659 131.78286 19472 ft 419 kts 58°
2026-05-05 11:40 31.83170 131.81265 19839 ft 428 kts 58°
2026-05-05 11:40 31.84676 131.84239 20440 ft 429 kts 58°
2026-05-05 11:40 31.86204 131.87258 21073 ft 430 kts 58°
2026-05-05 11:40 31.87747 131.90310 21508 ft 436 kts 58°
2026-05-05 11:41 31.89315 131.93412 21924 ft 443 kts 58°
2026-05-05 11:41 31.90897 131.96545 22359 ft 448 kts 58°
2026-05-05 11:41 31.92503 131.99726 22799 ft 453 kts 58°
2026-05-05 11:41 31.94117 132.02929 23272 ft 457 kts 58°
2026-05-05 11:42 31.95728 132.06128 23728 ft 462 kts 58°
2026-05-05 11:42 31.97377 132.09406 24044 ft 468 kts 58°
2026-05-05 11:42 31.99048 132.12729 24405 ft 473 kts 58°
2026-05-05 11:42 32.00733 132.16084 24790 ft 476 kts 58°
2026-05-05 11:43 32.01873 132.18356 25035 ft 479 kts 58°
2026-05-05 11:43 32.03555 132.21709 25398 ft 482 kts 59°
2026-05-05 11:43 32.05267 132.25127 25766 ft 486 kts 59°
2026-05-05 11:43 32.06994 132.28577 26126 ft 490 kts 59°
2026-05-05 11:44 32.08736 132.32060 26433 ft 495 kts 59°
2026-05-05 11:44 32.10493 132.35575 26770 ft 499 kts 59°
2026-05-05 11:44 32.12257 132.39110 27137 ft 502 kts 59°
2026-05-05 11:44 32.13949 132.42728 27444 ft 505 kts 62°
2026-05-05 11:45 32.15558 132.46446 27762 ft 509 kts 64°
2026-05-05 11:45 32.17129 132.50216 28083 ft 513 kts 64°
2026-05-05 11:45 32.18696 132.54020 28458 ft 515 kts 64°
2026-05-05 11:45 32.20252 132.57785 28789 ft 518 kts 64°
2026-05-05 11:46 32.21850 132.61621 29075 ft 522 kts 64°
2026-05-05 11:46 32.23467 132.65476 29338 ft 526 kts 64°
2026-05-05 11:46 32.25106 132.69367 29619 ft 530 kts 64°
2026-05-05 11:46 32.26757 132.73278 29931 ft 533 kts 64°
2026-05-05 11:47 32.28414 132.77206 30342 ft 533 kts 64°
2026-05-05 11:47 32.30066 132.81123 30775 ft 531 kts 64°
2026-05-05 11:47 32.31710 132.85029 31158 ft 530 kts 64°
2026-05-05 11:47 32.33351 132.88935 31515 ft 530 kts 64°
2026-05-05 11:48 32.36627 132.96751 32160 ft 531 kts 64°
2026-05-05 11:48 32.38268 133.00673 32533 ft 531 kts 65°
2026-05-05 11:48 32.39885 133.04542 32864 ft 530 kts 65°
2026-05-05 11:49 32.41519 133.08455 33209 ft 530 kts 65°
2026-05-05 11:49 32.43164 133.12401 33206 ft 537 kts 65°
2026-05-05 11:49 32.46510 133.20439 33224 ft 548 kts 65°
2026-05-05 11:50 32.49888 133.28570 33224 ft 558 kts 65°
2026-05-05 11:50 32.53319 133.36848 33207 ft 559 kts 65°
2026-05-05 11:51 32.56748 133.45136 33192 ft 559 kts 64°
2026-05-05 11:51 32.60198 133.53415 33218 ft 559 kts 64°
2026-05-05 11:52 32.63650 133.61695 33216 ft 559 kts 65°
2026-05-05 11:52 32.67031 133.69930 33236 ft 557 kts 65°
2026-05-05 11:53 32.70402 133.78219 33223 ft 557 kts 65°
2026-05-05 11:53 32.73769 133.86504 33204 ft 556 kts 65°
2026-05-05 11:54 32.77126 133.94768 33251 ft 555 kts 65°
2026-05-05 11:54 32.80465 134.03005 33201 ft 556 kts 65°
2026-05-05 11:55 32.83452 134.11460 33218 ft 552 kts 75°
2026-05-05 11:55 32.85589 134.20240 33232 ft 552 kts 78°
2026-05-05 11:56 32.87644 134.29003 33219 ft 553 kts 77°
2026-05-05 11:56 32.89796 134.37817 33223 ft 554 kts 76°
2026-05-05 11:57 32.91986 134.46619 33235 ft 555 kts 76°
2026-05-05 11:57 32.94178 134.55461 33224 ft 556 kts 76°
2026-05-05 11:58 32.96346 134.64273 33212 ft 556 kts 76°
2026-05-05 11:58 32.98510 134.73102 33254 ft 555 kts 76°
2026-05-05 11:59 33.00667 134.81930 33233 ft 554 kts 77°
2026-05-05 11:59 33.02795 134.90697 33233 ft 553 kts 77°
2026-05-05 12:00 33.04918 134.99476 33242 ft 539 kts 77°
2026-05-05 12:00 33.05941 135.03707 33187 ft 522 kts 77°
2026-05-05 12:00 33.06936 135.07835 33216 ft 516 kts 77°
2026-05-05 12:01 33.08993 135.15831 33212 ft 497 kts 67°
2026-05-05 12:01 33.10636 135.19394 33227 ft 482 kts 53°
2026-05-05 12:01 33.12691 135.22490 33214 ft 467 kts 42°
2026-05-05 12:02 33.15041 135.25030 33221 ft 448 kts 30°
2026-05-05 12:02 33.17558 135.27236 33289 ft 452 kts 29°
2026-05-05 12:02 33.22737 135.31772 33265 ft 470 kts 30°
2026-05-05 12:03 33.27984 135.36481 33243 ft 476 kts 31°
2026-05-05 12:03 33.33262 135.41268 33243 ft 475 kts 31°
2026-05-05 12:04 33.35893 135.43651 33094 ft 473 kts 31°
2026-05-05 12:04 33.38526 135.46035 32610 ft 474 kts 31°
2026-05-05 12:04 33.41170 135.48431 32014 ft 478 kts 31°
2026-05-05 12:04 33.43829 135.50844 31427 ft 482 kts 31°
2026-05-05 12:05 33.46519 135.53288 30778 ft 487 kts 31°
2026-05-05 12:05 33.49233 135.55758 30145 ft 491 kts 32°
2026-05-05 12:05 33.51964 135.58250 29404 ft 495 kts 32°
2026-05-05 12:05 33.54710 135.60740 28650 ft 492 kts 32°
2026-05-05 12:06 33.57389 135.63186 27936 ft 487 kts 32°
2026-05-05 12:06 33.60064 135.65641 27227 ft 481 kts 32°
2026-05-05 12:06 33.62702 135.68068 26551 ft 475 kts 32°
2026-05-05 12:06 33.65312 135.70463 25928 ft 469 kts 33°
2026-05-05 12:07 33.67882 135.72819 25315 ft 461 kts 32°
2026-05-05 12:07 33.70437 135.75111 24722 ft 455 kts 32°
2026-05-05 12:07 33.72954 135.77386 24149 ft 449 kts 32°
2026-05-05 12:07 33.75467 135.79567 23522 ft 442 kts 32°
2026-05-05 12:08 33.77938 135.81712 22754 ft 434 kts 32°
2026-05-05 12:08 33.80304 135.83932 22128 ft 428 kts 36°
2026-05-05 12:08 33.82624 135.86130 21495 ft 420 kts 35°
2026-05-05 12:08 33.84928 135.88256 20856 ft 414 kts 34°
2026-05-05 12:09 33.87226 135.90303 20219 ft 408 kts 34°
2026-05-05 12:09 33.89490 135.92316 19610 ft 402 kts 35°
2026-05-05 12:09 33.91707 135.94335 18996 ft 397 kts 36°
2026-05-05 12:09 33.93870 135.96307 18381 ft 391 kts 36°
2026-05-05 12:10 33.96020 135.98270 17685 ft 385 kts 36°
2026-05-05 12:10 33.98138 136.00200 17023 ft 379 kts 37°
2026-05-05 12:10 34.00236 136.02111 16395 ft 374 kts 37°
2026-05-05 12:10 34.02292 136.03981 15857 ft 367 kts 37°
2026-05-05 12:11 34.04307 136.05813 15404 ft 357 kts 38°
2026-05-05 12:11 34.06265 136.07593 14969 ft 349 kts 38°
2026-05-05 12:11 34.08160 136.09316 14551 ft 341 kts 38°
2026-05-05 12:11 34.10035 136.11026 14116 ft 334 kts 39°
2026-05-05 12:12 34.11870 136.12699 13671 ft 328 kts 39°
2026-05-05 12:12 34.13669 136.14344 13229 ft 321 kts 39°
2026-05-05 12:12 34.15437 136.15959 12818 ft 315 kts 39°
2026-05-05 12:12 34.17178 136.17547 12407 ft 310 kts 39°
2026-05-05 12:13 34.18891 136.19111 12012 ft 306 kts 39°
2026-05-05 12:13 34.20575 136.20648 11607 ft 301 kts 39°
2026-05-05 12:13 34.22219 136.22143 11217 ft 297 kts 39°
2026-05-05 12:13 34.23854 136.23630 10884 ft 291 kts 39°
2026-05-05 12:14 34.25461 136.25090 10542 ft 287 kts 39°
2026-05-05 12:14 34.27043 136.26530 10216 ft 282 kts 39°
2026-05-05 12:14 34.28605 136.27953 9855 ft 279 kts 39°
2026-05-05 12:14 34.30149 136.29361 9488 ft 276 kts 39°
2026-05-05 12:15 34.31678 136.30755 9124 ft 273 kts 39°
2026-05-05 12:15 34.33186 136.32127 8769 ft 270 kts 39°
2026-05-05 12:15 34.34661 136.33473 8440 ft 268 kts 39°
2026-05-05 12:15 34.36148 136.34837 8096 ft 267 kts 39°
2026-05-05 12:16 34.37630 136.36193 8051 ft 269 kts 39°
2026-05-05 12:16 34.39131 136.37565 8016 ft 270 kts 39°
2026-05-05 12:16 34.40619 136.38925 8013 ft 266 kts 39°
2026-05-05 12:16 34.42105 136.40267 8009 ft 267 kts 36°
2026-05-05 12:17 34.43687 136.41466 8006 ft 268 kts 32°
2026-05-05 12:17 34.45288 136.42586 7922 ft 271 kts 31°
2026-05-05 12:17 34.46926 136.43719 7747 ft 269 kts 31°
2026-05-05 12:17 34.48533 136.44834 7637 ft 264 kts 31°
2026-05-05 12:18 34.50124 136.45944 7550 ft 264 kts 31°
2026-05-05 12:18 34.51718 136.47062 7449 ft 264 kts 32°
2026-05-05 12:18 34.53310 136.48182 7356 ft 264 kts 32°
2026-05-05 12:18 34.54895 136.49300 7266 ft 264 kts 32°
2026-05-05 12:19 34.56483 136.50423 7133 ft 265 kts 32°
2026-05-05 12:19 34.58075 136.51550 7011 ft 265 kts 32°
2026-05-05 12:19 34.59645 136.52663 6898 ft 263 kts 32°
2026-05-05 12:19 34.61206 136.53770 6770 ft 256 kts 32°
2026-05-05 12:20 34.62730 136.54851 6640 ft 250 kts 32°
2026-05-05 12:20 34.64214 136.55904 6493 ft 243 kts 32°
2026-05-05 12:20 34.65656 136.56929 6359 ft 237 kts 32°
2026-05-05 12:20 34.67072 136.57936 6226 ft 234 kts 32°
2026-05-05 12:21 34.68460 136.58924 6097 ft 234 kts 32°
2026-05-05 12:21 34.69861 136.59922 5970 ft 234 kts 33°
2026-05-05 12:21 34.71269 136.60924 5847 ft 233 kts 33°
2026-05-05 12:21 34.72672 136.61924 5716 ft 233 kts 33°
2026-05-05 12:22 34.74075 136.62924 5594 ft 234 kts 33°
2026-05-05 12:22 34.75479 136.63926 5470 ft 234 kts 33°
2026-05-05 12:22 34.76867 136.64916 5344 ft 234 kts 34°
2026-05-05 12:22 34.78274 136.65920 5227 ft 235 kts 34°
2026-05-05 12:23 34.79684 136.66926 5109 ft 235 kts 34°
2026-05-05 12:23 34.81089 136.67929 5021 ft 234 kts 34°
2026-05-05 12:23 34.82493 136.68932 5000 ft 233 kts 34°
2026-05-05 12:23 34.83931 136.69838 4978 ft 236 kts 18°
2026-05-05 12:24 34.85577 136.69798 5024 ft 242 kts 349°
2026-05-05 12:24 34.87240 136.69368 4997 ft 245 kts 350°
2026-05-05 12:24 34.88908 136.68957 4990 ft 244 kts 350°
2026-05-05 12:24 34.90574 136.68550 4984 ft 244 kts 350°
2026-05-05 12:25 34.92249 136.68143 4835 ft 249 kts 350°
2026-05-05 12:25 34.93957 136.67731 4527 ft 251 kts 351°
2026-05-05 12:25 34.95696 136.67592 4215 ft 250 kts
2026-05-05 12:25 34.97403 136.67774 3919 ft 247 kts
2026-05-05 12:26 34.98982 136.68444 3596 ft 234 kts 42°
2026-05-05 12:26 34.99965 136.69829 3532 ft 200 kts 65°
2026-05-05 12:26 35.00437 136.71282 3491 ft 172 kts 83°
2026-05-05 12:26 35.00686 136.72713 3520 ft 174 kts 84°
2026-05-05 12:27 35.00889 136.74152 3490 ft 167 kts 95°
2026-05-05 12:27 35.00653 136.75426 3489 ft 146 kts 119°
2026-05-05 12:27 35.00099 136.76407 3501 ft 138 kts 137°
2026-05-05 12:27 34.99318 136.77078 3480 ft 141 kts 163°
2026-05-05 12:28 34.98374 136.77405 3496 ft 143 kts 163°
2026-05-05 12:28 34.97412 136.77717 3496 ft 142 kts 166°
2026-05-05 12:28 34.96430 136.77978 3521 ft 151 kts 167°
2026-05-05 12:28 34.95400 136.78233 3466 ft 150 kts 167°
2026-05-05 12:29 34.94324 136.78494 2901 ft 164 kts 167°
2026-05-05 12:29 34.93212 136.78761 2408 ft 161 kts 166°
2026-05-05 12:29 34.92150 136.79017 2122 ft 147 kts 165°
2026-05-05 12:29 34.91155 136.79258 1800 ft 145 kts 165°
2026-05-05 12:30 34.90112 136.79511 1017 ft 160 kts 165°
2026-05-05 12:30 34.89006 136.79778 478 ft 164 kts 167°
2026-05-05 12:30 34.87920 136.80038 118 ft 156 kts 167°
2026-05-05 12:30 34.87229 136.80208 67 ft 150 kts 167°
2026-05-05 12:31 34.86227 136.80469 20 ft 144 kts 164°
2026-05-05 12:31 34.85093 136.80717 21 ft 74 kts 171°
2026-05-05 12:31 34.84683 136.80816 19 ft 63 kts 168°
2026-05-05 12:31 34.84445 136.80876 18 ft 18 kts 168°
2026-05-05 12:32 34.84307 136.80931 17 ft 13 kts 120°
2026-05-05 12:32 34.84337 136.81067 17 ft 14 kts 69°
2026-05-05 12:32 34.84339 136.81073 17 ft 0 kts 69°
2026-05-05 12:32 34.84347 136.81127 18 ft 5 kts 82°
2026-05-05 12:33 34.84354 136.81172 18 ft 4 kts 77°
2026-05-05 12:33 34.84384 136.81229 18 ft 13 kts 26°
2026-05-05 12:33 34.84512 136.81212 18 ft 23 kts 348°
2026-05-05 12:33 34.84672 136.81175 18 ft 23 kts 350°
2026-05-05 12:34 34.84827 136.81145 19 ft 22 kts 341°
2026-05-05 12:34 34.84970 136.81104 19 ft 12 kts 347°
2026-05-05 12:34 34.85044 136.81122 18 ft 12 kts 52°
2026-05-05 12:34 34.85065 136.81218 19 ft 12 kts 77°
2026-05-05 12:35 34.85081 136.81314 18 ft 12 kts 79°
2026-05-05 12:35 34.85124 136.81388 20 ft 11 kts 15°
2026-05-05 12:35 34.85205 136.81379 18 ft 12 kts 348°
2026-05-05 12:35 34.85283 136.81359 18 ft 11 kts 349°
2026-05-05 12:36 34.85362 136.81340 19 ft 12 kts 347°
2026-05-05 12:36 34.85442 136.81321 18 ft 12 kts 348°
2026-05-05 12:36 34.85525 136.81302 18 ft 13 kts 348°
2026-05-05 12:36 34.85603 136.81320 19 ft 13 kts 63°
2026-05-05 12:37 34.85616 136.81382 18 ft 4 kts 79°
2026-05-05 12:37 34.85620 136.81406 18 ft 0 kts 80°